Vorticity
nan nan nan nan nan nan nan nan nan nan nan nan nan nan nan nan nan nan nan nan nan nan nan nan nan nan nan nan nan nan nan nan nan nan nan nan nan nan nan nan nan nan nan nan nan nan nan
nan 6 7 6 7 7 8 9 8 8 10 9 8 10 10 10 8 10 10 8 8 9 9 10 12 10 8 4 12 15 6 14 18 11 10 3 7 2 2 15 11 5 5 12 5 4 nan
nan 8 6 7 7 7 9 9 8 9 8 10 9 11 13 13 10 10 10 9 9 7 8 8 12 10 11 9 3 5 8 5 12 22 8 5 7 4 2 11 9 11 15 6 10 2 nan
nan 7 6 6 7 7 8 9 9 9 8 9 11 10 13 19 17 10 9 8 8 8 7 10 11 9 8 16 3 -3 4 9 19 17 10 5 9 5 -1 12 14 8 11 6 9 5 nan
nan 6 6 7 7 8 9 9 8 7 9 9 11 11 15 19 20 12 9 10 10 9 13 16 12 8 6 13 13 15 9 9 17 13 12 6 12 12 7 6 5 8 6 9 10 8 nan
nan 7 6 8 7 6 8 9 9 8 8 8 11 12 19 29 22 12 7 9 13 17 14 9 10 8 14 8 14 13 14 9 16 14 5 8 10 11 10 6 6 7 7 6 3 11 nan
nan 7 7 7 7 7 8 8 8 8 7 9 11 12 24 32 19 10 9 13 14 11 6 5 9 3 1 18 20 9 14 10 14 13 -0 5 10 16 12 0 -1 8 13 7 11 10 nan
nan 6 7 7 6 7 7 9 10 8 8 10 10 11 20 19 10 8 10 8 8 8 12 14 7 10 7 10 9 18 15 12 9 13 0 -0 13 14 7 6 4 14 16 5 7 9 nan
nan 7 6 6 7 6 7 8 9 9 8 9 10 11 15 13 5 3 8 11 7 8 11 9 10 15 10 7 15 14 10 16 19 11 4 2 9 8 13 18 7 12 10 8 5 5 nan
nan 7 6 6 7 7 7 8 9 9 8 9 10 11 12 13 10 8 6 10 11 8 10 4 9 13 8 3 10 7 10 9 24 16 2 8 14 15 11 11 4 7 10 9 11 5 nan
nan 7 6 6 6 8 7 8 8 10 9 8 9 10 10 15 18 8 6 9 11 9 9 5 8 9 13 16 9 2 12 16 15 9 6 14 14 13 12 10 6 9 17 10 7 4 nan
nan 6 7 7 6 7 7 8 8 9 10 9 11 13 17 15 8 7 6 7 11 8 5 14 12 11 23 15 8 8 4 12 8 4 8 9 11 14 12 15 20 13 5 5 7 11 nan
nan 7 7 6 7 6 7 8 8 8 10 10 14 18 17 10 8 7 8 11 11 10 5 6 12 17 10 10 8 10 12 12 9 9 6 6 9 9 9 9 14 13 -1 -1 7 7 nan
nan 7 7 7 7 5 7 8 7 8 9 13 15 25 16 8 7 8 10 10 7 9 9 9 9 10 5 8 7 11 13 11 9 8 8 10 10 8 10 7 15 12 1 5 12 10 nan
nan 7 7 7 6 6 7 7 8 9 10 15 27 21 10 10 8 10 10 12 7 8 6 8 12 2 9 11 8 5 9 8 8 4 8 9 9 11 14 11 11 12 8 7 9 12 nan
nan 7 7 7 7 6 7 8 8 10 12 21 26 11 13 8 11 10 11 9 9 8 9 8 6 9 12 7 9 8 5 8 9 8 9 11 8 12 13 8 5 10 9 6 9 10 nan
nan 7 8 8 7 6 6 8 8 9 15 28 19 10 10 10 14 8 8 9 12 9 7 9 10 16 11 8 4 7 10 11 8 10 15 8 7 10 9 9 8 8 4 4 7 9 nan
nan 7 8 7 8 8 6 6 7 9 23 26 14 11 9 9 11 12 10 8 8 11 12 8 8 11 10 9 7 9 8 7 12 10 8 7 13 9 7 7 7 10 15 8 10 9 nan
nan 7 7 8 10 8 5 7 7 9 23 21 10 13 9 8 10 11 10 7 8 9 10 12 11 9 11 8 9 9 8 8 10 12 11 11 7 6 8 10 13 13 9 6 7 12 nan
nan 6 6 8 9 8 7 6 7 9 21 22 10 11 10 10 8 9 10 9 9 8 7 10 11 13 12 4 10 12 8 8 8 8 10 13 9 8 11 12 14 14 13 7 5 7 nan
nan 6 6 7 9 9 9 7 6 8 20 24 11 11 9 9 4 8 13 10 9 9 7 11 8 10 11 10 10 9 10 8 6 8 8 10 10 10 9 10 8 11 14 9 3 3 nan
nan 6 5 7 9 9 8 8 7 9 24 25 10 8 10 10 7 13 15 9 10 9 11 9 8 11 8 7 12 15 11 7 9 9 6 8 10 8 10 9 7 9 10 12 9 7 nan
nan 5 5 5 7 9 10 9 9 12 23 16 12 11 10 10 13 13 6 7 12 10 8 9 14 10 9 8 11 13 14 14 14 15 9 7 9 7 9 9 11 19 21 11 6 14 nan
nan 6 7 6 6 9 11 10 10 9 15 14 11 12 11 10 9 5 6 9 11 10 10 13 12 11 15 11 9 9 9 9 11 12 13 9 6 7 8 11 8 10 16 22 16 7 nan
nan 6 7 7 6 10 10 10 10 10 11 11 10 11 11 9 12 12 9 11 13 12 11 9 10 17 12 7 8 6 5 6 7 11 13 11 8 7 10 6 12 15 10 14 14 14 nan
nan 7 7 6 7 9 8 10 11 11 12 11 9 10 9 10 7 12 13 13 16 14 8 10 11 8 7 11 9 9 8 10 9 7 8 11 10 9 9 9 9 13 16 11 8 16 nan
nan 8 8 6 6 7 8 8 13 13 9 12 11 10 9 9 1 7 10 10 12 12 12 15 10 5 8 10 11 11 8 12 12 11 9 8 11 10 6 7 11 12 9 8 11 7 nan
nan 9 9 6 6 7 10 10 12 11 10 12 13 12 8 9 9 5 3 4 10 9 11 10 9 11 10 8 10 11 11 11 7 11 14 10 8 12 10 9 14 11 11 10 12 9 nan
nan nan nan nan nan nan nan nan nan nan nan nan nan nan nan nan nan nan nan nan nan nan nan nan nan nan nan nan nan nan nan nan nan nan nan nan nan nan nan nan nan nan nan nan nan nan nan
CAPE
17 24 19 27 25 31 32 37 49 35 35 57 69 71 73 75 94 120 137 168 209 254 269 218 161 107 66 48 2 9 110 306 459 233 11 45 11 34 55 28 0 0 0 0 0 0 0
16 22 16 26 27 35 57 53 22 32 62 76 76 77 78 95 118 132 186 197 247 259 233 202 182 133 48 38 0 0 33 9 373 203 7 41 7 27 53 42 9 0 1 0 0 0 0
21 26 16 20 30 43 45 36 43 49 55 80 88 99 116 149 166 125 163 200 223 254 255 240 165 162 66 2 2 201 20 9 10 313 13 20 24 66 38 23 41 8 2 4 0 0 0
16 12 17 26 36 26 35 34 33 32 70 89 98 94 114 176 203 96 98 92 227 245 313 301 238 161 38 11 0 0 8 27 1 259 72 47 171 102 55 33 40 25 10 5 0 0 0
14 15 13 22 19 28 27 38 43 57 63 71 76 66 130 189 197 89 7 64 210 338 354 310 256 157 16 104 0 0 21 54 42 333 64 108 284 138 126 51 52 41 0 0 0 0 0
12 11 13 23 18 19 25 49 45 45 52 62 48 99 180 162 155 0 1 179 210 186 282 234 183 73 4 4 84 12 44 68 99 178 100 133 137 91 76 83 31 0 0 0 0 0 0
13 11 11 17 17 22 19 23 28 35 53 57 41 72 163 118 92 0 127 172 146 216 170 82 42 13 29 1 50 0 213 128 247 116 37 190 109 70 14 0 0 0 0 0 0 0 0
11 5 12 13 17 20 19 20 21 29 41 52 42 46 72 46 22 48 107 73 38 36 35 0 0 2 0 19 3 86 70 50 288 40 41 224 0 28 34 24 17 0 0 0 0 0 0
11 7 13 13 15 20 17 23 13 24 33 46 44 30 5 32 15 50 61 7 2 20 41 21 35 13 0 13 15 92 62 38 61 15 42 17 9 0 13 22 19 6 0 0 0 0 0
6 8 12 10 12 20 17 22 20 13 19 30 28 23 3 0 13 30 7 3 13 11 60 4 14 19 8 6 1 0 24 7 2 40 46 2 24 10 16 30 14 23 0 0 0 0 0
8 8 8 14 12 16 20 18 16 21 12 15 10 21 0 0 9 4 8 8 25 9 18 0 1 0 0 42 13 11 1 24 1 3 0 7 2 29 16 21 23 31 7 1 0 0 0
8 8 8 12 8 13 20 14 14 11 16 8 10 5 1 18 8 1 2 10 4 19 9 11 16 10 26 14 23 31 47 0 2 0 2 6 0 1 7 0 37 26 0 0 0 0 1
9 6 6 8 9 9 15 12 14 9 10 10 9 4 3 0 12 10 17 19 8 15 5 26 11 17 23 29 38 11 14 8 6 4 4 3 3 5 0 0 0 23 42 27 21 14 4
7 6 6 3 13 9 13 17 10 9 6 12 7 0 0 1 8 16 8 6 9 11 10 4 4 12 10 21 22 4 17 15 28 7 14 38 18 5 7 0 3 4 47 71 13 10 0
7 5 6 3 15 11 10 17 13 7 13 16 0 0 0 4 3 10 4 12 3 6 6 3 12 9 12 16 14 1 16 13 5 6 4 12 20 9 4 7 1 9 3 0 0 0 0
7 5 5 5 12 5 5 14 9 5 12 8 1 0 0 0 1 5 13 1 7 1 2 1 1 1 2 5 7 4 12 0 0 0 0 0 9 1 1 9 0 2 0 0 0 0 0
3 6 5 6 7 5 3 7 11 3 4 0 0 0 0 0 0 7 18 8 5 4 2 3 2 5 3 7 5 1 1 0 0 0 0 0 0 1 0 1 1 0 0 0 0 0 0
3 6 6 8 9 8 1 3 9 5 6 4 4 7 0 0 7 10 11 2 0 8 1 0 4 6 10 8 7 1 2 3 0 0 0 0 2 10 5 0 0 0 4 0 0 0 0
4 7 9 9 3 13 1 1 2 3 1 21 2 0 0 0 2 6 0 1 0 1 0 0 0 0 0 0 1 0 0 0 0 0 0 0 0 5 3 0 0 0 0 0 0 0 0
3 6 5 5 5 20 4 1 0 0 0 3 4 1 0 6 2 15 3 0 0 0 0 0 0 0 0 0 0 0 0 0 0 0 0 0 0 0 0 0 0 0 0 0 0 0 0
4 2 5 5 7 12 16 2 0 0 0 3 5 1 2 10 16 9 6 1 0 0 0 0 0 0 0 0 0 0 0 0 0 0 0 0 0 0 0 0 0 0 0 0 0 0 0
4 3 12 4 9 10 25 9 3 0 0 0 2 8 6 2 1 1 6 9 2 0 0 0 0 0 0 0 0 0 0 0 0 0 0 0 0 0 0 0 0 0 0 0 0 0 0
3 6 9 11 15 14 19 19 12 0 0 0 3 11 14 2 3 4 7 21 14 0 0 0 0 0 0 0 0 0 0 0 0 0 0 1 0 0 1 0 0 0 0 0 0 0 0
4 5 22 17 26 27 26 33 15 0 0 1 5 10 16 0 3 2 0 1 8 16 18 0 0 1 0 0 0 0 0 0 0 0 0 4 1 0 1 0 0 0 0 0 0 0 0
0 0 29 31 37 29 41 29 33 10 0 3 7 21 15 8 1 0 3 5 9 8 30 28 7 0 0 0 10 9 10 6 6 2 1 5 7 8 3 0 0 0 0 0 0 0 0
0 5 20 33 41 27 35 24 34 16 14 4 9 6 28 17 2 3 2 4 11 31 31 18 1 0 1 31 25 4 1 1 2 10 0 0 8 2 5 3 0 2 0 0 0 5 0
3 13 27 20 35 28 39 36 47 37 16 12 16 13 10 15 0 3 14 9 5 0 26 21 3 16 0 23 39 9 1 5 3 3 9 14 18 12 0 2 0 0 0 0 15 4 0
1 16 23 26 26 20 29 25 28 37 43 26 27 31 18 19 0 0 0 2 5 5 32 36 37 19 41 37 36 22 11 5 4 6 4 11 9 4 1 0 0 0 0 1 0 0 0
6 18 15 25 5 2 38 23 17 41 16 41 24 26 29 44 2 0 0 5 6 4 9 5 32 21 46 46 15 7 9 8 4 3 0 1 1 5 0 3 0 0 2 0 0 0 0